This demonstration page uses our WeatherBlox Daily Observations layout. Learn more.

Hourly Observations for May 18, 2015

Temp ( °F °C ) Dew Point ( °F °C ) Humidity (%) Winds ( mph kmh ) Pressure ( in mb ) Visibility ( mi km ) Precip ( " mm )
12:15 am 00:15 Clear 55 13 50 10 82 82 NNW 10 17 30.09 1019 10 16.09344 0 0
12:35 am 00:35 Clear 55 13 50 10 82 82 N 13 20 30.09 1019 10 16.09344 0 0
12:55 am 00:55 Clear 54 12 50 10 88 88 N 12 19 30.09 1019 10 16.09344 0 0
1:15 am 01:15 Clear 54 12 48 9 82 82 N 10 17 30.12 1020 10 16.09344 0 0
1:35 am 01:35 Clear 54 12 48 9 82 82 N 13 20 30.12 1020 10 16.09344 0 0
1:55 am 01:55 Clear 52 11 46 8 82 82 N 16 26 30.12 1020 10 16.09344 0 0
2:15 am 02:15 Clear 52 11 45 7 77 77 N 20 31 30.12 1020 10 16.09344 0 0
2:35 am 02:35 Clear 50 10 43 6 76 76 N 13 20 30.15 1021 10 16.09344 0 0
2:55 am 02:55 Clear 48 9 43 6 82 82 N 14 22 30.15 1021 10 16.09344 0 0
3:15 am 03:15 Clear 48 9 41 5 76 76 N 14 22 30.15 1021 10 16.09344 0 0
3:35 am 03:35 Clear 46 8 43 6 87 87 N 13 20 30.15 1021 10 16.09344 0 0
3:55 am 03:55 Clear 46 8 41 5 82 82 N 13 20 30.18 1022 10 16.09344 0 0
4:15 am 04:15 Clear 46 8 41 5 82 82 N 13 20 30.18 1022 10 16.09344 0 0
4:35 am 04:35 Partly Cloudy 46 8 41 5 82 82 N 10 17 30.21 1023 10 16.09344 0 0
4:55 am 04:55 Partly Cloudy 46 8 39 4 76 76 N 13 20 30.21 1023 10 16.09344 0 0
5:15 am 05:15 Partly Cloudy 45 7 39 4 81 81 N 10 17 30.27 1025 10 16.09344 0 0
5:35 am 05:35 Partly Cloudy 45 7 39 4 81 81 N 10 17 30.27 1025 10 16.09344 0 0
5:55 am 05:55 Partly Cloudy 45 7 39 4 81 81 N 8 13 30.27 1025 10 16.09344 0 0
6:15 am 06:15 Partly Cloudy 45 7 39 4 81 81 N 8 13 30.27 1025 10 16.09344 0 0
6:35 am 06:35 Partly Cloudy 45 7 39 4 81 81 N 9 15 30.3 1026 10 16.09344 0 0
6:55 am 06:55 Partly Cloudy 45 7 39 4 81 81 N 10 17 30.3 1026 10 16.09344 0 0
7:15 am 07:15 Mostly Cloudy 46 8 41 5 82 82 N 12 19 30.3 1026 10 16.09344 0 0
7:35 am 07:35 Partly Cloudy 46 8 39 4 76 76 N 9 15 30.33 1027 10 16.09344 0 0
7:55 am 07:55 Sunny 46 8 41 5 82 82 N 12 19 30.3 1026 10 16.09344 0 0
8:15 am 08:15 Partly Cloudy 48 9 39 4 71 71 N 22 35 30.27 1025 10 16.09344 0 0
8:35 am 08:35 Mostly Cloudy 46 8 39 4 76 76 N 15 24 30.33 1027 10 16.09344 0 0
8:55 am 08:55 Mostly Cloudy 48 9 39 4 71 71 NNW 14 22 30.33 1027 10 16.09344 0 0
9:15 am 09:15 Partly Cloudy 48 9 39 4 71 71 N 18 30 30.33 1027 10 16.09344 0 0
9:35 am 09:35 Partly Cloudy 50 10 39 4 67 67 N 18 30 30.33 1027 10 16.09344 0 0
9:55 am 09:55 Partly Cloudy 50 10 39 4 67 67 N 17 28 30.33 1027 10 16.09344 0 0
10:35 am 10:35 Partly Cloudy 52 11 39 4 62 62 N 14 22 30.33 1027 10 16.09344 0 0
10:55 am 10:55 Sunny 54 12 39 4 58 58 N 14 22 30.36 1028 10 16.09344 0 0
11:15 am 11:15 Sunny 54 12 39 4 58 58 NNW 13 20 30.36 1028 10 16.09344 0 0
11:35 am 11:35 Sunny 54 12 39 4 58 58 N 18 30 30.36 1028 10 16.09344 0 0
11:55 am 11:55 Sunny 54 12 39 4 58 58 NNW 13 20 30.36 1028 10 16.09344 0 0
12:15 pm 12:15 Sunny 55 13 39 4 55 55 N 8 13 30.33 1027 10 16.09344 0 0
12:35 pm 12:35 Sunny 57 14 39 4 51 51 N 6 9 30.33 1027 10 16.09344 0 0
12:55 pm 12:55 Sunny 57 14 39 4 51 51 N 13 20 30.33 1027 10 16.09344 0 0
1:15 pm 13:15 Sunny 59 15 39 4 48 48 NNE 13 20 30.33 1027 10 16.09344 0 0
1:35 pm 13:35 Sunny 59 15 39 4 48 48 N 12 19 30.3 1026 10 16.09344 0 0
1:55 pm 13:55 Sunny 61 16 39 4 45 45 N 13 20 30.27 1025 10 16.09344 0 0
2:15 pm 14:15 Sunny 61 16 41 5 48 48 N 14 22 30.27 1025 10 16.09344 0 0
2:35 pm 14:35 Sunny 63 17 39 4 42 42 N 12 19 30.27 1025 10 16.09344 0 0
2:55 pm 14:55 Sunny 63 17 39 4 42 42 N 12 19 30.27 1025 10 16.09344 0 0
3:15 pm 15:15 Sunny 61 16 39 4 45 45 NNE 10 17 30.27 1025 10 16.09344 0 0
3:35 pm 15:35 Sunny 63 17 39 4 42 42 N 13 20 30.27 1025 10 16.09344 0 0
3:55 pm 15:55 Sunny 63 17 39 4 42 42 N 10 17 30.24 1024 10 16.09344 0 0
4:15 pm 16:15 Partly Cloudy 61 16 39 4 45 45 N 13 20 30.24 1024 10 16.09344 0 0
4:35 pm 16:35 Partly Cloudy 63 17 39 4 42 42 NNE 12 19 30.24 1024 10 16.09344 0 0
4:55 pm 16:55 Partly Cloudy 63 17 37 3 39 39 NNE 10 17 30.24 1024 10 16.09344 0 0
5:15 pm 17:15 Sunny 63 17 39 4 42 42 NNE 7 11 30.24 1024 10 16.09344 0 0
5:35 pm 17:35 Sunny 63 17 39 4 42 42 NNE 9 15 30.24 1024 10 16.09344 0 0
5:55 pm 17:55 Sunny 63 17 39 4 42 42 NNE 12 19 30.24 1024 10 16.09344 0 0
6:15 pm 18:15 Partly Cloudy 63 17 39 4 42 42 NNE 6 9 30.24 1024 10 16.09344 0 0
6:35 pm 18:35 Sunny 63 17 39 4 42 42 NE 12 19 30.24 1024 10 16.09344 0 0
6:55 pm 18:55 Sunny 63 17 39 4 42 42 NNE 7 11 30.24 1024 10 16.09344 0 0
7:15 pm 19:15 Sunny 63 17 39 4 42 42 NNE 9 15 30.24 1024 10 16.09344 0 0
7:35 pm 19:35 Sunny 61 16 39 4 45 45 NE 12 19 30.24 1024 10 16.09344 0 0
7:55 pm 19:55 Sunny 59 15 39 4 48 48 NE 10 17 30.27 1025 10 16.09344 0 0
8:15 pm 20:15 Sunny 59 15 39 4 48 48 ENE 10 17 30.27 1025 10 16.09344 0 0
8:35 pm 20:35 Sunny 57 14 39 4 51 51 NE 8 13 30.3 1026 10 16.09344 0 0
8:55 pm 20:55 Clear 55 13 39 4 55 55 NE 7 11 30.3 1026 10 16.09344 0 0
9:15 pm 21:15 Clear 54 12 41 5 63 63 NE 6 9 30.33 1027 10 16.09344 0 0
9:35 pm 21:35 Clear 52 11 41 5 67 67 NE 8 13 30.33 1027 10 16.09344 0 0
9:55 pm 21:55 Clear 52 11 41 5 67 67 NE 6 9 30.33 1027 10 16.09344 0 0
10:15 pm 22:15 Clear 50 10 41 5 71 71 NE 8 13 30.33 1027 10 16.09344 0 0
10:35 pm 22:35 Clear 50 10 41 5 71 71 NE 8 13 30.33 1027 10 16.09344 0 0
10:55 pm 22:55 Clear 50 10 41 5 71 71 ENE 9 15 30.33 1027 10 16.09344 0 0
11:15 pm 23:15 Clear 50 10 41 5 71 71 ENE 7 11 30.33 1027 10 16.09344 0 0
11:35 pm 23:35 Clear 48 9 39 4 71 71 ENE 8 13 30.33 1027 10 16.09344 0 0
11:55 pm 23:55 Clear 46 8 41 5 82 82 ENE 7 11 30.36 1028 10 16.09344 0 0

Powered by AerisWeather